Time,TemperatureF,DewpointF,PressureIn,WindDirection,WindDirectionDegrees,WindSpeedMPH,WindSpeedGustMPH,Humidity,HourlyPrecipIn,Conditions,Clouds,dailyrainin,SolarRadiationWatts/m^2,SoftwareType,DateUTC
2013-01-23 00:12:00,33.1,32.0,29.78,North,5,9.0,-999.0,96,-99.99,,,0.00,0,weatherlink.com 1.10,2013-01-23 00:12:00,
2013-01-23 00:27:00,33.3,32.0,29.78,North,5,5.0,-999.0,95,-99.99,,,0.00,0,weatherlink.com 1.10,2013-01-23 00:27:00,
2013-01-23 00:42:00,33.0,32.0,29.78,NNE,24,1.0,-999.0,95,-99.99,,,0.00,0,weatherlink.com 1.10,2013-01-23 00:42:00,
2013-01-23 00:57:00,32.8,32.0,29.78,North,9,4.0,-999.0,95,-99.99,,,0.00,0,weatherlink.com 1.10,2013-01-23 00:57:00,
2013-01-23 01:12:00,32.4,31.0,29.78,North,11,1.0,-999.0,95,-99.99,,,0.00,0,weatherlink.com 1.10,2013-01-23 01:12:00,
2013-01-23 01:27:00,32.1,31.0,29.78,NNW,347,0.0,-999.0,95,-99.99,,,0.00,0,weatherlink.com 1.10,2013-01-23 01:27:00,
2013-01-23 01:42:00,31.5,30.0,29.79,NNW,347,0.0,-999.0,95,-99.99,,,0.00,0,weatherlink.com 1.10,2013-01-23 01:42:00,
2013-01-23 01:57:00,31.1,30.0,29.78,NNW,348,0.0,-999.0,95,-99.99,,,0.00,0,weatherlink.com 1.10,2013-01-23 01:57:00,
2013-01-23 02:12:00,31.0,30.0,29.79,North,349,0.0,-999.0,95,-99.99,,,0.00,0,weatherlink.com 1.10,2013-01-23 02:12:00,
2013-01-23 02:27:00,30.8,30.0,29.79,NNE,17,0.0,-999.0,95,-99.99,,,0.00,0,weatherlink.com 1.10,2013-01-23 02:27:00,
2013-01-23 02:42:00,30.4,29.0,29.79,NNW,344,0.0,-999.0,95,-99.99,,,0.00,0,weatherlink.com 1.10,2013-01-23 02:42:00,
2013-01-23 02:57:00,30.6,30.0,29.79,NNW,346,0.0,-999.0,96,-99.99,,,0.00,0,weatherlink.com 1.10,2013-01-23 02:57:00,
2013-01-23 03:12:00,31.3,30.0,29.78,NE,39,0.0,-999.0,96,-99.99,,,0.00,0,weatherlink.com 1.10,2013-01-23 03:12:00,
2013-01-23 03:27:00,31.2,30.0,29.78,NNE,22,0.0,-999.0,96,-99.99,,,0.00,0,weatherlink.com 1.10,2013-01-23 03:27:00,
2013-01-23 03:42:00,30.9,30.0,29.78,NNE,15,0.0,-999.0,96,-99.99,,,0.00,0,weatherlink.com 1.10,2013-01-23 03:42:00,
2013-01-23 03:57:00,30.8,30.0,29.78,NNE,15,0.0,-999.0,96,-99.99,,,0.00,0,weatherlink.com 1.10,2013-01-23 03:57:00,
2013-01-23 04:12:00,30.6,30.0,29.78,NNE,15,0.0,-999.0,96,-99.99,,,0.00,0,weatherlink.com 1.10,2013-01-23 04:12:00,
2013-01-23 04:27:00,30.7,30.0,29.78,NNE,15,0.0,-999.0,96,-99.99,,,0.00,0,weatherlink.com 1.10,2013-01-23 04:27:00,
2013-01-23 04:42:00,30.9,30.0,29.78,NNE,15,0.0,-999.0,96,-99.99,,,0.00,0,weatherlink.com 1.10,2013-01-23 04:42:00,
2013-01-23 04:57:00,31.1,30.0,29.78,NNE,15,0.0,-999.0,96,-99.99,,,0.00,0,weatherlink.com 1.10,2013-01-23 04:57:00,
2013-01-23 05:12:00,31.5,31.0,29.78,NNE,17,0.0,-999.0,97,-99.99,,,0.00,0,weatherlink.com 1.10,2013-01-23 05:12:00,
2013-01-23 05:27:00,31.8,31.0,29.78,NNE,19,0.0,-999.0,97,-99.99,,,0.00,0,weatherlink.com 1.10,2013-01-23 05:27:00,
2013-01-23 05:42:00,32.0,31.0,29.78,NNE,27,0.0,-999.0,97,-99.99,,,0.00,0,weatherlink.com 1.10,2013-01-23 05:42:00,
2013-01-23 05:57:00,32.2,32.0,29.77,NNE,13,1.0,-999.0,97,-99.99,,,0.00,0,weatherlink.com 1.10,2013-01-23 05:57:00,
2013-01-23 06:12:00,32.2,32.0,29.77,NNE,25,2.0,-999.0,97,-99.99,,,0.00,0,weatherlink.com 1.10,2013-01-23 06:12:00,
2013-01-23 06:27:00,32.3,31.0,29.77,NNE,25,0.0,-999.0,96,-99.99,,,0.00,0,weatherlink.com 1.10,2013-01-23 06:27:00,
2013-01-23 06:42:00,32.4,32.0,29.78,North,5,1.0,-999.0,97,-99.99,,,0.00,0,weatherlink.com 1.10,2013-01-23 06:42:00,
2013-01-23 07:12:00,32.7,32.0,29.78,NNE,26,4.0,-999.0,97,-99.99,,,0.00,0,weatherlink.com 1.10,2013-01-23 07:12:00,
2013-01-23 07:27:00,32.8,32.0,29.78,NNE,30,2.0,-999.0,97,-99.99,,,0.00,0,weatherlink.com 1.10,2013-01-23 07:27:00,
2013-01-23 07:42:00,32.8,32.0,29.78,NNE,28,4.0,-999.0,97,-99.99,,,0.00,0,weatherlink.com 1.10,2013-01-23 07:42:00,
2013-01-23 07:57:00,32.8,32.0,29.78,NNE,19,2.0,-999.0,97,-99.99,,,0.00,0,weatherlink.com 1.10,2013-01-23 07:57:00,
2013-01-23 08:12:00,32.8,32.0,29.78,North,355,3.0,-999.0,96,-99.99,,,0.00,0,weatherlink.com 1.10,2013-01-23 08:12:00,
2013-01-23 08:27:00,32.7,32.0,29.78,North,360,1.0,-999.0,96,-99.99,,,0.00,0,weatherlink.com 1.10,2013-01-23 08:27:00,
2013-01-23 08:42:00,32.8,32.0,29.79,NE,49,3.0,-999.0,96,-99.99,,,0.00,0,weatherlink.com 1.10,2013-01-23 08:42:00,
2013-01-23 08:57:00,32.9,32.0,29.79,North,355,5.0,-999.0,96,-99.99,,,0.00,7,weatherlink.com 1.10,2013-01-23 08:57:00,
2013-01-23 09:12:00,33.0,32.0,29.80,NW,325,4.0,-999.0,96,-99.99,,,0.00,19,weatherlink.com 1.10,2013-01-23 09:12:00,
2013-01-23 09:42:00,33.3,32.0,29.80,NNW,343,2.0,-999.0,96,-99.99,,,0.00,33,weatherlink.com 1.10,2013-01-23 09:42:00,
2013-01-23 09:57:00,33.4,32.0,29.80,North,9,6.0,-999.0,95,-99.99,,,0.00,49,weatherlink.com 1.10,2013-01-23 09:57:00,
2013-01-23 10:13:00,33.6,32.0,29.80,NNE,32,3.0,-999.0,95,-99.99,,,0.00,60,weatherlink.com 1.10,2013-01-23 10:13:00,
2013-01-23 10:28:00,33.9,32.0,29.80,NNE,30,3.0,-999.0,94,-99.99,,,0.00,72,weatherlink.com 1.10,2013-01-23 10:28:00,
2013-01-23 10:43:00,34.0,33.0,29.81,NNW,332,2.0,-999.0,94,-99.99,,,0.00,69,weatherlink.com 1.10,2013-01-23 10:43:00,
2013-01-23 10:58:00,34.2,32.0,29.81,NE,46,3.0,-999.0,93,-99.99,,,0.00,84,weatherlink.com 1.10,2013-01-23 10:58:00,
2013-01-23 11:13:00,34.4,32.0,29.80,North,360,2.0,-999.0,92,-99.99,,,0.00,121,weatherlink.com 1.10,2013-01-23 11:13:00,
2013-01-23 11:28:00,34.9,33.0,29.80,NNW,343,2.0,-999.0,91,-99.99,,,0.00,171,weatherlink.com 1.10,2013-01-23 11:28:00,
2013-01-23 11:43:00,35.7,33.0,29.80,NNE,18,4.0,-999.0,89,-99.99,,,0.00,146,weatherlink.com 1.10,2013-01-23 11:43:00,
2013-01-23 11:58:00,35.3,32.0,29.80,North,350,5.0,-999.0,88,-99.99,,,0.00,86,weatherlink.com 1.10,2013-01-23 11:58:00,
2013-01-23 12:13:00,35.0,32.0,29.80,NNE,16,1.0,-999.0,89,-99.99,,,0.00,86,weatherlink.com 1.10,2013-01-23 12:13:00,
2013-01-23 12:28:00,35.0,32.0,29.80,North,5,4.0,-999.0,88,-99.99,,,0.01,81,weatherlink.com 1.10,2013-01-23 12:28:00,
2013-01-23 12:43:00,35.1,32.0,29.80,NE,38,6.0,-999.0,88,-99.99,,,0.01,91,weatherlink.com 1.10,2013-01-23 12:43:00,
2013-01-23 12:58:00,35.2,32.0,29.80,NE,44,3.0,-999.0,88,-99.99,,,0.01,97,weatherlink.com 1.10,2013-01-23 12:58:00,
2013-01-23 13:13:00,35.4,33.0,29.80,ENE,57,1.0,-999.0,89,-99.99,,,0.01,93,weatherlink.com 1.10,2013-01-23 13:13:00,
2013-01-23 13:28:00,35.7,33.0,29.80,NNE,30,1.0,-999.0,88,-99.99,,,0.01,105,weatherlink.com 1.10,2013-01-23 13:28:00,
2013-01-23 13:43:00,35.9,32.0,29.80,NNE,33,2.0,-999.0,87,-99.99,,,0.01,62,weatherlink.com 1.10,2013-01-23 13:43:00,
2013-01-23 13:58:00,35.8,32.0,29.80,NNE,24,4.0,-999.0,87,-99.99,,,0.01,69,weatherlink.com 1.10,2013-01-23 13:58:00,
2013-01-23 14:13:00,35.9,32.0,29.80,NE,34,1.0,-999.0,87,-99.99,,,0.01,56,weatherlink.com 1.10,2013-01-23 14:13:00,
2013-01-23 14:28:00,35.8,32.0,29.80,NE,46,5.0,-999.0,87,-99.99,,,0.01,51,weatherlink.com 1.10,2013-01-23 14:28:00,
2013-01-23 14:43:00,35.8,32.0,29.80,NNE,14,3.0,-999.0,87,-99.99,,,0.01,47,weatherlink.com 1.10,2013-01-23 14:43:00,
2013-01-23 14:58:00,35.7,33.0,29.80,NNE,31,1.0,-999.0,88,-99.99,,,0.01,40,weatherlink.com 1.10,2013-01-23 14:58:00,
2013-01-23 15:13:00,35.6,32.0,29.81,NNE,21,0.0,-999.0,88,-99.99,,,0.01,35,weatherlink.com 1.10,2013-01-23 15:13:00,
2013-01-23 15:28:00,35.5,32.0,29.81,NNE,32,7.0,-999.0,88,-99.99,,,0.01,35,weatherlink.com 1.10,2013-01-23 15:28:00,
2013-01-23 15:43:00,35.4,32.0,29.81,NNE,14,4.0,-999.0,88,-99.99,,,0.01,28,weatherlink.com 1.10,2013-01-23 15:43:00,
2013-01-23 15:58:00,35.4,32.0,29.81,North,11,5.0,-999.0,88,-99.99,,,0.01,7,weatherlink.com 1.10,2013-01-23 15:58:00,
2013-01-23 16:13:00,35.4,32.0,29.82,NE,39,4.0,-999.0,88,-99.99,,,0.01,7,weatherlink.com 1.10,2013-01-23 16:13:00,
2013-01-23 16:28:00,35.4,33.0,29.81,NE,36,3.0,-999.0,89,-99.99,,,0.01,0,weatherlink.com 1.10,2013-01-23 16:28:00,
2013-01-23 16:43:00,35.4,33.0,29.82,ENE,61,3.0,-999.0,89,-99.99,,,0.01,0,weatherlink.com 1.10,2013-01-23 16:43:00,
2013-01-23 16:58:00,35.4,33.0,29.82,NE,35,4.0,-999.0,89,-99.99,,,0.01,0,weatherlink.com 1.10,2013-01-23 16:58:00,
2013-01-23 17:13:00,35.3,33.0,29.82,North,355,2.0,-999.0,90,-99.99,,,0.01,0,weatherlink.com 1.10,2013-01-23 17:13:00,
2013-01-23 17:28:00,35.3,33.0,29.82,NNE,33,4.0,-999.0,90,-99.99,,,0.01,0,weatherlink.com 1.10,2013-01-23 17:28:00,
2013-01-23 17:43:00,35.3,33.0,29.82,NE,53,3.0,-999.0,91,-99.99,,,0.01,0,weatherlink.com 1.10,2013-01-23 17:43:00,
2013-01-23 18:13:00,35.0,33.0,29.82,North,5,2.0,-999.0,91,-99.99,,,0.01,0,weatherlink.com 1.10,2013-01-23 18:13:00,
2013-01-23 18:28:00,35.0,33.0,29.83,ESE,114,4.0,-999.0,91,-99.99,,,0.01,0,weatherlink.com 1.10,2013-01-23 18:28:00,
2013-01-23 18:43:00,35.1,33.0,29.83,ENE,66,2.0,-999.0,91,-99.99,,,0.01,0,weatherlink.com 1.10,2013-01-23 18:43:00,
2013-01-23 18:58:00,35.0,33.0,29.83,NNE,17,2.0,-999.0,91,-99.99,,,0.01,0,weatherlink.com 1.10,2013-01-23 18:58:00,
2013-01-23 19:13:00,35.0,33.0,29.83,North,355,6.0,-999.0,91,-99.99,,,0.01,0,weatherlink.com 1.10,2013-01-23 19:13:00,
2013-01-23 19:28:00,35.0,33.0,29.83,NNE,27,4.0,-999.0,91,-99.99,,,0.01,0,weatherlink.com 1.10,2013-01-23 19:28:00,
2013-01-23 19:43:00,35.0,33.0,29.83,NNE,25,5.0,-999.0,91,-99.99,,,0.01,0,weatherlink.com 1.10,2013-01-23 19:43:00,
2013-01-23 19:58:00,34.9,33.0,29.84,NNE,18,0.0,-999.0,92,-99.99,,,0.01,0,weatherlink.com 1.10,2013-01-23 19:58:00,
2013-01-23 20:13:00,34.8,33.0,29.85,NE,35,3.0,-999.0,92,-99.99,,,0.01,0,weatherlink.com 1.10,2013-01-23 20:13:00,
2013-01-23 20:28:00,34.9,33.0,29.85,NNE,32,1.0,-999.0,92,-99.99,,,0.01,0,weatherlink.com 1.10,2013-01-23 20:28:00,
2013-01-23 20:58:00,34.9,33.0,29.86,NNE,22,4.0,-999.0,93,-99.99,,,0.01,0,weatherlink.com 1.10,2013-01-23 20:58:00,
2013-01-23 21:13:00,34.8,33.0,29.87,ENE,57,2.0,-999.0,93,-99.99,,,0.01,0,weatherlink.com 1.10,2013-01-23 21:13:00,
2013-01-23 21:28:00,34.7,33.0,29.87,North,360,4.0,-999.0,93,-99.99,,,0.01,0,weatherlink.com 1.10,2013-01-23 21:28:00,
2013-01-23 21:43:00,34.7,33.0,29.87,NE,41,3.0,-999.0,93,-99.99,,,0.01,0,weatherlink.com 1.10,2013-01-23 21:43:00,
2013-01-23 21:58:00,34.7,33.0,29.87,NE,42,2.0,-999.0,93,-99.99,,,0.01,0,weatherlink.com 1.10,2013-01-23 21:58:00,
2013-01-23 22:14:00,34.7,33.0,29.88,NNE,29,2.0,-999.0,93,-99.99,,,0.01,0,weatherlink.com 1.10,2013-01-23 22:14:00,
2013-01-23 22:28:00,34.6,33.0,29.88,North,351,2.0,-999.0,94,-99.99,,,0.01,0,weatherlink.com 1.10,2013-01-23 22:28:00,
2013-01-23 22:44:00,34.6,33.0,29.88,NNE,24,3.0,-999.0,94,-99.99,,,0.01,0,weatherlink.com 1.10,2013-01-23 22:44:00,
2013-01-23 22:59:00,34.6,33.0,29.88,NNE,29,3.0,-999.0,94,-99.99,,,0.01,0,weatherlink.com 1.10,2013-01-23 22:59:00,
2013-01-23 23:14:00,34.5,33.0,29.89,North,5,1.0,-999.0,94,-99.99,,,0.01,0,weatherlink.com 1.10,2013-01-23 23:14:00,
2013-01-23 23:29:00,34.4,33.0,29.89,NW,308,0.0,-999.0,94,-99.99,,,0.01,0,weatherlink.com 1.10,2013-01-23 23:29:00,
2013-01-23 23:44:00,34.2,33.0,29.90,NW,311,0.0,-999.0,94,-99.99,,,0.01,0,weatherlink.com 1.10,2013-01-23 23:44:00,
2013-01-23 23:59:00,34.0,33.0,29.90,NNW,329,0.0,-999.0,94,-99.99,,,0.00,0,weatherlink.com 1.10,2013-01-23 23:59:00,